STARLINK-4393, 53470

Orbit data source: Space-Track

STARLINK-4393, 53470 is a payload satellite owned by SpaceX/Seattle (US) in SSO that was launched on Fri, 12 Aug 2022 UTC via an FALCON 9 launch vehicle from the Air Force Western Test Range (AFWTR). Payload-class satellites include a variety of spacecraft equipped with specific instruments for various scientific and technological missions. These include communications satellites like Starlink; space stations such as the ISS; scientific satellites like the Hubble; Earth observation satellites from companies like Planet Labs, Umbra, and HawkEye 360; GPS; miniature CubeSats for education and research; and military/defense satellites.

Loading next visibility...
Identifier
53470, 2022-099F
Orbit
SSO
Country
Flag of USUS
Related business
Manufacturer
SpaceX/Seattle
Mission
Operational Commercial Communications
Bus & Motor
STARLINK, Unknown motor
Mass
300 kg wet, ~275 kg dry
Launch date (UTC)
2022-08-12 (3 years ago)
Launch vehicle
FALCON 9
Launch site
Air Force Western Test Range (AFWTR)
Object type
Payload
Rocket body
Debris
Shape & HBR
Box + 1 Pan, 10.1 m
Radar Cross Section
13.562 m², Large (>1 m²)

Expand to show TLE details & history
Last TLE update: 5 hours ago

TLE from 5 hours ago
0 STARLINK-4393
1 53470U 22099F   25293.61883201  .00001448  00000-0  11724-3 0  9996
2 53470  97.6056  53.0809 0001559  89.5442 270.5961 15.01265259174964
Epoch: 2025-10-20T14:51Z
TLE epoch observation values (Epoch: 2025-10-20T14:51:07.085Z)
Latitude
-0.00004°
Longitude
160.98283°
Altitude
566.042 km
Speed
7.578 km/s
True Right ascension
03h 32m 19s
True Declination
0° 00' 00"
Sunlit
Object was in full shadow at epoch
Visualization orbit readout
Latitude
Unknown
Longitude
Unknown
Altitude
Unknown
Speed
Unknown
Apparent Right ascension
Unknown
Apparent Declination
Unknown
Sunlit
N/A
Visualization observer readout
Local Sidereal Time
15:05:55
Azimuth
Unknown
Elevation
Unknown
Doppler factor
Unknown
Orbital elements
Apogee altitude
561.075 km
Perigee altitude
558.911 km
Semi-major axis
6,938.13 km
Eccentricity
0.00016
Inclination
97.6056°
RAAN
53.0809°
Arg. of periapsis
89.5442°
True anomaly
270.57824°
Mean anomaly
270.5961°
Eccentric anomaly
270.58717°
Mean motion
3.7556 °/min
Orbital period
95.86 mins
BSTAR
0.00011724
Loading maneuver chart data...
Computing Atmospheric mass density...
Loading historical data...
Loading historical data...
Loading historical data...
Loading historical data...
Loading historical data...
Loading historical data...
Loading historical data...

Documentation

Showing up to 5 results
|